Regional Weather Roundup
Issued by NWS Midland/Odessa, TX

Skip options and go directly to product.
Home | Oldest Version | Previous Version | Current Version | All | Graphics & Text | Save Text | Print | Product List | Glossary On

Skip product version selection by date and time.   
932
ASUS44 KMAF 010310
RWRMAF
MIDLAND AREA WEATHER ROUNDUP
NATIONAL WEATHER SERVICE MIDLAND TX
1000 PM CDT FRI SEP 30 2016

...IN SOUTHWEST TEXAS AND SOUTHEAST NEW MEXICO...

CITY           SKY/WX    TMP DP  RH WIND       PRES   REMARKS
ALPINE         CLOUDY    62  60  93 S5        30.26S
ANDREWS        FAIR      65  49  56 S6        30.14S
ARTESIA        CLEAR     64  55  72 S9        30.12S
BIG SPRING     CLEAR     65  51  59 SE8       30.14S
CARLSBAD       CLEAR     65  57  75 S7        30.11R
DRYDEN           N/A     68  58  70 NE5       30.11R
FORT STOCKTON  CLOUDY    69  58  67 S8        30.13R
GUAD PASS      CLOUDY    61  57  87 W9        30.24S
HOBBS          MOCLDY    63  55  77 SE7       30.15S
MARFA          PTCLDY    60  59  96 E3        30.23F
MIDLAND AIRPK  CLEAR     72  49  44 SE8       30.14R
MIDLAND INTL   CLEAR     68  49  50 S6        30.12S
ODESSA         CLEAR     70  50  49 S8        30.13S
PECOS          CLOUDY    69  62  78 SE5       30.09F
PRESIDIO       CLOUDY    73  64  73 CALM      30.13R
SEMINOLE       PTCLDY    67  53  61 CALM      30.15S
SNYDER           N/A     64  55  70 SE6       30.13S
WINK           CLEAR     67  57  70 SE7       30.09F
$$
...OTHER STATIONS IN TEXAS...

CITY           SKY/WX    TMP DP  RH WIND       PRES   REMARKS
ABILENE        CLEAR     64  53  67 S7        30.13R
AMARILLO       CLOUDY    68  49  50 S14       30.11R
AUSTIN         PTCLDY    61  57  87 CALM      30.08R
BROWNSVILLE    CLOUDY    77  67  71 N6        30.04R
CORPUS CHRISTI MOCLDY    73  56  54 NE6       30.06R
DALLAS FTW     PTCLDY    69  49  48 NE3       30.08S
DEL RIO        CLOUDY    72  61  68 SE6       30.07R
EL PASO        PTCLDY    70  60  70 S7        30.14R
HOUSTON INT    CLEAR     65  57  75 CALM      30.08R
LUBBOCK        CLOUDY    67  51  56 SE9       30.13R
SAN ANGELO     CLOUDY    63  56  78 E3        30.12R
SAN ANTONIO    PTCLDY    68  55  63 E5        30.09R
WACO           CLEAR     59  54  83 CALM      30.09R
WICHITA FALLS  NOT AVBL
$$
...OTHER LOCATIONS IN NEW MEXICO...

CITY           SKY/WX    TMP DP  RH WIND       PRES   REMARKS
ALAMAGORDO     CLEAR     64  59  82 SE7       30.16S
ALBUQUERQUE    PTCLDY    72  43  35 NW6       30.19R
CANNON AFB     CLOUDY    64  51  64 S8        30.13S
CLOVIS         CLEAR     63  48  59 S8        30.14R
HOLLOMAN AFB   CLEAR     69  59  71 SE7       30.14R
ROSWELL        PTCLDY    67  51  56 S12       30.11R
RUIDOSO        CLEAR     55  50  82 CALM      30.30S
SANTA FE       CLOUDY    63  44  50 NW8       30.21R
TRUTH OR CONSE PTCLDY    70  58  65 SW12      30.16R
TUCUMCARI      CLEAR     67  51  56 S9        30.08R
$$